, AK

(GMT )
Deadhorse

Weather History for PASC - December, 2012

Change the Weather History Date:

Friday, December 14, 2012

  Actual Average Record
Temperature  
Mean Temperature -34 °F -  
Max Temperature -32 °F -3 °F 26 °F (2008)
Min Temperature -36 °F -13 °F -40 °F (2013)
Degree Days  
Heating Degree Days 99    
Moisture  
Dew Point -    
Average Humidity    
Maximum Humidity    
Minimum Humidity    
Precipitation  
Precipitation 0.00 in - - ()
Sea Level Pressure  
Sea Level Pressure 29.71 in    
Wind  
Wind Speed 11 mph (SW)    
Max Wind Speed 14 mph    
Max Gust Speed -    
Visibility 10 miles    
Events      
Averages and records for this station are not official NWS values.
T = Trace of Precipitation, MM = Missing Value Source: NWS Daily Summary

Daily Weather History Graph

Daily Weather History Graph

Search for Another Location

Airport or City:

Trip Planner

Search our weather history database for the weather conditions in past years. The results will help you decide how hot, cold, wet, or windy it might be!

Date:

Astronomy

Dec. 31, 1969 Rise Set
Actual Time Sun does not set Sun does not set
Civil Twilight 10:45 AM AKST 2:52 PM AKST
Nautical Twilight 8:55 AM AKST 4:41 PM AKST
Astronomical Twilight 7:35 AM AKST 6:02 PM AKST
Moon 1:08 PM AKST (12/14) 3:53 PM AKST (12/14)
Length of Visible Light 4h 07m
Length of Day
0h 00m
Waxing Crescent, 3% of the Moon is Illuminated
Dec 14
Waxing Crescent
Dec 19
First Quarter
Dec 28
Full
Jan 4
Last Quarter
Jan 11
New

Hourly Weather History & Observations

Time (AKST) Temp. Windchill Dew Point Humidity Pressure Visibility Wind Dir Wind Speed Gust Speed Precip Events Conditions
12:53 AM -34.1 °F -62.0 °F - N/A% 29.68 in 10.0 mi SW 13.8 mph - N/A   Clear
1:53 AM -34.1 °F -62.0 °F - N/A% 29.68 in 10.0 mi SW 13.8 mph - N/A   Clear
2:53 AM -33.0 °F -59.6 °F - N/A% 29.68 in 10.0 mi SW 12.7 mph - N/A   Clear
3:53 AM -33.0 °F -59.6 °F - N/A% 29.68 in 10.0 mi SW 12.7 mph - N/A   Clear
4:53 AM -32.1 °F -56.1 °F - N/A% 29.69 in 10.0 mi SW 10.4 mph - N/A   Clear
5:53 AM -32.1 °F -58.4 °F - N/A% 29.69 in 7.0 mi SW 12.7 mph - N/A   Clear
6:53 AM -33.0 °F -59.6 °F - N/A% 29.69 in 8.0 mi SW 12.7 mph - N/A   Clear
7:53 AM -33.0 °F -59.6 °F - N/A% 29.69 in 10.0 mi SW 12.7 mph - N/A   Clear
8:53 AM -33.0 °F -60.6 °F - N/A% 29.69 in 10.0 mi SW 13.8 mph - N/A   Clear
9:53 AM -34.1 °F -59.8 °F - N/A% 29.70 in 10.0 mi SW 11.5 mph - N/A   Clear
10:53 AM -34.1 °F -58.5 °F - N/A% 29.70 in 10.0 mi SW 10.4 mph - N/A   Clear
11:53 AM -34.1 °F -58.5 °F - N/A% 29.71 in 10.0 mi SSW 10.4 mph - N/A   Clear
12:53 PM -34.1 °F -57.2 °F - N/A% 29.71 in 10.0 mi SSW 9.2 mph - N/A   Clear
1:53 PM -33.0 °F -57.2 °F - N/A% 29.72 in 10.0 mi SSW 10.4 mph - N/A   Clear
2:53 PM -34.1 °F -55.7 °F - N/A% 29.72 in 10.0 mi SW 8.1 mph - N/A   Clear
3:53 PM -35.0 °F -55.0 °F - N/A% 29.72 in 10.0 mi SW 6.9 mph - N/A   Clear
4:53 PM -35.0 °F -56.8 °F - N/A% 29.73 in 10.0 mi SW 8.1 mph - N/A   Scattered Clouds
5:53 PM -35.0 °F -53.1 °F - N/A% 29.74 in 10.0 mi SSW 5.8 mph - N/A   Scattered Clouds
6:53 PM -35.0 °F -55.0 °F - N/A% 29.75 in 10.0 mi SW 6.9 mph - N/A   Clear
7:53 PM -36.0 °F -54.3 °F - N/A% 29.75 in 10.0 mi SSW 5.8 mph - N/A   Clear
8:53 PM -34.1 °F -52.0 °F - N/A% 29.75 in 10.0 mi SSW 5.8 mph - N/A   Clear
9:53 PM -35.0 °F -53.1 °F - N/A% 29.75 in 10.0 mi South 5.8 mph - N/A   Clear
10:53 PM -35.0 °F -53.1 °F - N/A% 29.76 in 10.0 mi South 5.8 mph - N/A   Clear
11:53 PM -35.0 °F -50.7 °F - N/A% 29.77 in 10.0 mi SSW 4.6 mph - N/A   Clear